Preview of NWS' New Version of Forecast
This preview is not operational and should not be used for support decisions.

Regional Weather Roundup (RWR)

Issued by National Weather Service (NWS)

                            
000
ASUS46 KSEW 180010
RWRWA 

WASHINGTON REGIONAL WEATHER ROUNDUP
NATIONAL WEATHER SERVICE SEATTLE WA
500 PM PDT WED APR 17 2019

NOTE:"FAIR" INDICATES FEW OR NO CLOUDS BELOW 12,000 FEET WITH NO 
SIGNIFICANT WEATHER AND/OR OBSTRUCTIONS TO VISIBILITY.

WAZ507-509-555>559-180100-
SEATTLE, TACOMA, EVERETT, AND VICINITY
  
CITY           SKY/WX    TMP DP  RH WIND       PRES   REMARKS
EVERETT        MOSUNNY   59  46  62 S13       30.29F                  
6HR MIN TEMP:  51; 6HR MAX TEMP:  59;                                

BOEING FIELD   MOSUNNY   62  42  47 S10       30.29F                  
6HR MIN TEMP:  55; 6HR MAX TEMP:  63;                                

RENTON         PTSUNNY   64  43  46 SW9       30.29F                  
6HR MIN TEMP:  55; 6HR MAX TEMP:  65;                                

SEATAC AIRPORT MOSUNNY   62  44  51 SW15      30.29F                  
6HR MIN TEMP:  54; 6HR MAX TEMP:  62;                                

JBLM-MCCHORD     N/A    N/A N/A N/A MISG        N/A                   
6HR MIN TEMP:  53; 6HR MAX TEMP:  54;                                

PUYALLUP       FAIR      63  43  48 SW6       30.30F                  
BREMERTON      PTSUNNY   62  47  57 SW16      30.28F                  
6HR MIN TEMP:  50; 6HR MAX TEMP:  62;                                

JBLM-FT LEWIS  PTSUNNY   62  49  63 S9        30.29F                  
6HR MIN TEMP:  53; 6HR MAX TEMP:  64; 6HR PCP: TRACE;                

TACOMA NARROWS PTSUNNY   61  46  57 SW6       30.30F                  
6HR MIN TEMP:  52; 6HR MAX TEMP:  62;                                

$$
 
WAZ001-503-506-510-514-515-180100-
NORTH INTERIOR
  
CITY           SKY/WX    TMP DP  RH WIND       PRES   REMARKS
BELLINGHAM     CLOUDY    59  44  57 S8        30.28S                  
6HR MIN TEMP:  53; 6HR MAX TEMP:  59;                                

FRIDAY HARBOR  CLOUDY    58  46  64 SE6       30.29F                  
6HR MIN TEMP:  53; 6HR MAX TEMP:  62;                                

EASTSOUND      PTSUNNY   57  46  67 S7G15     30.27S                  
PORT ANGELES   CLOUDY    56  47  71 VRB3      30.28F                  
6HR MIN TEMP:  51; 6HR MAX TEMP:  57;                                

EDIZ HOOK      CLOUDY    53  49  87 NW6       30.28S                  
6HR MIN TEMP:  50; 6HR MAX TEMP:  54;                                

PORT TOWNSEND  PTSUNNY   61  50  67 E10       30.26S                  
NAS WHIDBEY    PTSUNNY   63  47  55 SE10      30.32S                  
6HR MIN TEMP:  57; 6HR MAX TEMP:  64;                                

ARLINGTON      PTSUNNY   60  46  59 S9        30.29F                  
6HR MIN TEMP:  52; 6HR MAX TEMP:  62;                                

BURLINGTON     CLOUDY    64  48  55 S8G15     30.28F                  
$$
 
WAZ020-022-039-040-504-511-512-180100-
SOUTHWEST INTERIOR
  
CITY           SKY/WX    TMP DP  RH WIND       PRES   REMARKS
SHELTON        PTSUNNY   62  46  55 W10       30.29R                  
6HR MIN TEMP:  53; 6HR MAX TEMP:  63; 6HR PCP:  0.01;                

OLYMPIA        PTSUNNY   61  45  55 SW8       30.30F                  
6HR MIN TEMP:  51; 6HR MAX TEMP:  62; 6HR PCP:  0.01;                

CHEHALIS       PTSUNNY   64  46  52 S10       30.30F                  
KELSO          CLOUDY    62  47  57 S8        30.32F                  
6HR MIN TEMP:  54; 6HR MAX TEMP:  63;                                

VANCOUVER      SUNNY     65  44  46 CALM      30.29F                  
6HR MIN TEMP:  55; 6HR MAX TEMP:  65;                                

SCAPPOOSE, OR  SUNNY     65  47  52 S3        30.31F                  
6HR MIN TEMP:  56; 6HR MAX TEMP:  65;                                

PORTLAND, OR   MOSUNNY   65  44  46 N3        30.31F                  
6HR MIN TEMP:  56; 6HR MAX TEMP:  65;                                

$$
 
WAZ021-516-517-180100-
WASHINGTON COAST
  
CITY           SKY/WX    TMP DP  RH WIND       PRES   REMARKS
FORKS          CLOUDY    52  50  93 S8        30.29S FOG              
6HR MIN TEMP:  51; 6HR MAX TEMP:  55; 6HR PCP:  0.01;                

HOQUIAM        CLOUDY    53  53 100 SW10      30.33R FOG              
6HR MIN TEMP:  52; 6HR MAX TEMP:  55;                                

ASTORIA, OR    PTSUNNY   56  48  74 SW18G25   30.31S                  
6HR MIN TEMP:  53; 6HR MAX TEMP:  59;                                

$$
 
WAZ019-023-024-040-567>569-180100-
CASCADE MOUNTAINS AND COLUMBIA GORGE
  
CITY           SKY/WX    TMP DP  RH WIND       PRES   REMARKS
STAMPEDE PASS  NOT AVBL                                               
TROUTDALE, OR  SUNNY     65  45  48 VRB5      30.30F                  
6HR MIN TEMP:  55; 6HR MAX TEMP:  65;                                

HOOD RIVER, OR CLEAR     63  45  51 MISG      30.25F                  
THE DALLES, OR SUNNY     66  43  43 NW13G23   30.23F                  
6HR MIN TEMP:  58; 6HR MAX TEMP:  67;                                

$$

WAZ026-027-041>044-520-521-180100-
EAST SLOPES
  
CITY           SKY/WX    TMP DP  RH WIND       PRES   REMARKS
OMAK           SUNNY     70  30  22 S14       30.09F                  
6HR MIN TEMP:  62; 6HR MAX TEMP:  70;                                

WENATCHEE      SUNNY     67  29  24 NW15      30.16R                  
6HR MIN TEMP:  57; 6HR MAX TEMP:  68;                                

ELLENSBURG     MOSUNNY   62  37  39 NW23G33   30.20F                  
6HR MIN TEMP:  56; 6HR MAX TEMP:  64;                                

YAKIMA         MOSUNNY   67  33  28 NW16      30.18F                  
6HR MIN TEMP:  60; 6HR MAX TEMP:  70;                                

SUNNYSIDE ARPT PTCLDY    69  41  35 E5        30.19F                  
6HR MIN TEMP:  59; 6HR MAX TEMP:  68;                                

YAKIMA TC      FAIR      67  32  27 W10       30.17F                  
6HR MIN TEMP:  56; 6HR MAX TEMP:  67;                                

$$

WAZ028-034-035-180100-
COLUMBIA BASIN
  
CITY           SKY/WX    TMP DP  RH WIND       PRES   REMARKS
EPHRATA        SUNNY     67  35  30 SW17      30.15F                  
6HR MIN TEMP:  60; 6HR MAX TEMP:  68;                                

MOSES LAKE     MOSUNNY   70  32  24 SW12      30.17S                  
6HR MIN TEMP:  62; 6HR MAX TEMP:  71;                                

PASCO          SUNNY     73  40  30 SW13      30.20F                  
6HR MIN TEMP:  65; 6HR MAX TEMP:  73;                                

RICHLAND ARPT  CLEAR     72  37  28 SW8       30.19                   
6HR MIN TEMP:  62; 6HR MAX TEMP:  72;                                

HERMISTON, OR  SUNNY     70  39  32 SW12      30.21F                  
6HR MIN TEMP:  62; 6HR MAX TEMP:  70;                                

$$

WAZ036>038-180100-
NORTHEAST WASHINGTON
  
CITY           SKY/WX    TMP DP  RH WIND       PRES   REMARKS
SPOKANE GEIGER MOSUNNY   61  33  35 SW21      30.17S                  
6HR MIN TEMP:  54; 6HR MAX TEMP:  62;                                

SPOKANE FELTS  PTSUNNY   62  31  31 SW15      30.17S                  
6HR MIN TEMP:  56; 6HR MAX TEMP:  64;                                

FAIRCHILD AFB  MOSUNNY   59  34  39 SW12      30.17S                  
6HR MIN TEMP:  58; 6HR MAX TEMP:  60;                                

COEURDALENE,ID SUNNY     58  35  42 SW17G26   30.17S                  
6HR MIN TEMP:  53; 6HR MAX TEMP:  61;                                

DEER PARK      SUNNY     63  31  30 SW20      30.14F                  
6HR MIN TEMP:  55; 6HR MAX TEMP:  64;                                

$$

WAZ029>033-180100-
SOUTHEAST WASHINGTON
  
CITY           SKY/WX    TMP DP  RH WIND       PRES   REMARKS
PULLMAN        PTSUNNY   57  39  51 SW16      30.24F                  
6HR MIN TEMP:  50; 6HR MAX TEMP:  58;                                

LEWISTON, ID   CLOUDY    62  38  40 CALM      30.22S                  
6HR MIN TEMP:  57; 6HR MAX TEMP:  63;                                

WALLA WALLA    MOSUNNY   65  41  41 SW14      30.22F                  
6HR MIN TEMP:  55; 6HR MAX TEMP:  65;                                

PENDLETON, OR  SUNNY     64  42  44 W13       30.23F                  
6HR MIN TEMP:  57; 6HR MAX TEMP:  64;                                

$$